Location: Breux
(46.3269°N, 3.2993°E)
Time: 03:23:52
(UTC+00:00)

Cosmos 2154 Rocket - Pass Details

Date: 09 April 2020
Orbit: 965 x 997 km, 82.9° (Epoch: 02 June)

Event Time Altitude Azimuth Distance (km) Brightness Sun altitude
Rises 19:22:59 0° 351° (N) 3,729 7.5 -10.1°
Reaches altitude 10° 19:25:32 10° 353° (N) 2,774 6.8 -10.5°
Maximum altitude 19:31:56 82° 81° (E) 1,008 4.0 -11.5°
Drops below altitude 10° 19:38:15 10° 170° (S) 2,739 6.0 -12.4°
Sets 19:40:44 0° 171° (S) 3,679 6.7 -12.8°
